Home > Time Zones > World Clock > Weather > U.S.A. > Waco > Past weeks

Flag for U.S.A. Weather past 2 weeks in Waco, Texas, U.S.A.

Now
75 °F

Clear.


Feels Like: 74 °F
Forecast: 71 / 87 °F
Wind: 3 mph from Southeast

Location: Waco Regional Airport

Current Time: Sep 19, 2014 at 11:37:50 PM

Latest Report: Sep 19, 2014 at 10:51 PM


Visibility: 10 mi

Pressure: 29.93 "Hg

Humidity: 88%

Dew point: 71 °F

Location of WacoLocation

Historic Weather in Waco — Graph

°F

Waco temperature yesterday

Maximum temperature yesterday: 86 °F (at 12:51 PM)
Minimum temperature yesterday: 73 °F (at 12:51 AM)
Average temperature yesterday: 77 °F

Past Weeks' High & Low Weather Summary

 TemperatureHumidityPressure
High98 °F (Sep 10, 2:51 PM)100% (Sep 19, 7:51 AM)30.25 "Hg (Sep 19, 7:51 AM)
Low58 °F (Sep 13, 4:51 AM)34% (Sep 5, 5:51 PM)29.73 "Hg (Sep 10, 5:51 PM)
Average79 °F73%29.99 "Hg
* Reported Sep 4 9:51 PM — Sep 19 9:51 PM, Waco, Weather by CustomWeather, © 2014

Note: Actual official high and low records may vary slightly from our data, if they occured in-between our weather recording intervals... More about our weather records

Advertising

Waco weather history for previous 24 hours

 ConditionsComfort  
Time TempWeatherWind HumidityBarometerVisibility
9:51 PM
Sep 19
77 °FClear.6 mph82%29.91 "Hg10 mi
8:51 PM78 °FClear.9 mph79%29.89 "Hg10 mi
7:51 PM80 °FSunny.6 mph74%29.87 "Hg10 mi
6:51 PM83 °FSunny.7 mph68%29.87 "Hg10 mi
5:51 PM84 °FPassing clouds.8 mph61%29.86 "Hg10 mi
4:51 PM85 °FScattered clouds.7 mph61%29.86 "Hg10 mi
3:51 PM86 °FPartly sunny.5 mph55%29.87 "Hg10 mi
2:51 PM85 °FBroken clouds.No wind59%29.89 "Hg10 mi
1:51 PM84 °FScattered clouds.6 mph63%29.90 "Hg10 mi
12:51 PM83 °FScattered clouds.5 mph68%29.93 "Hg10 mi
11:51 AM78 °FMostly cloudy.5 mph82%29.94 "Hg10 mi
10:51 AM74 °FFog.5 mph94%29.95 "Hg1 mi
9:51 AM72 °FFog.3 mph97%29.94 "Hg1 mi
8:59 AM71 °FFog.No wind96%29.95 "Hg1 mi
7:51 AM69 °FFog.6 mph100%29.91 "Hg0 mi
6:51 AM70 °FFog.6 mph97%29.90 "Hg1 mi
5:51 AM70 °FFog.3 mph97%29.89 "Hg5 mi
4:51 AM70 °FFog.3 mph97%29.89 "Hg5 mi
3:51 AM71 °FFog.5 mph93%29.89 "Hg6 mi
3:01 AM71 °FMostly cloudy.5 mph93%29.91 "Hg10 mi
1:51 AM72 °FMostly cloudy.5 mph93%29.89 "Hg10 mi
12:51 AM72 °FOvercast.7 mph93%29.89 "Hg10 mi
11:51 PM
Sep 18
73 °FPassing clouds.5 mph97%29.88 "Hg10 mi
Weather by CustomWeather, © 2014

See weather overviewHow to use our weather pages